Theta_e
332 327 333 326 313 317 312 316 323 322 322 326 329 328 325 325 324 317 331 336 347 346 358 361 366 367 366 365 364 363 362 364 366 365 364 364 363 361 360 358 357 354 351 350 351 352 352 352 350
325 329 325 319 310 307 311 319 320 323 324 326 324 330 326 323 333 335 333 341 347 350 355 359 366 367 367 365 364 362 362 365 365 364 364 364 363 361 358 357 355 351 350 351 352 354 354 354 354
328 325 314 311 310 307 311 319 321 323 321 321 324 330 330 329 337 341 335 344 348 350 353 362 365 365 366 366 364 363 364 365 365 364 363 363 362 360 358 356 354 349 351 353 355 356 356 355 355
321 318 314 306 305 312 316 320 321 321 320 321 325 323 338 337 344 347 340 341 346 347 354 362 365 365 366 365 365 364 364 365 364 363 363 362 360 358 357 355 353 350 354 356 355 352 350 349 349
320 314 306 305 306 310 316 322 322 320 321 319 323 324 335 343 348 349 342 339 344 345 358 359 364 364 363 363 365 364 364 364 363 363 362 361 360 357 356 352 350 351 355 353 348 343 343 349 350
312 313 303 302 306 311 314 320 321 319 322 320 319 325 338 345 345 348 346 341 344 347 358 357 363 364 363 364 364 363 362 363 363 363 362 361 359 357 355 353 351 352 354 350 346 344 350 350 350
309 308 304 305 306 308 312 317 315 317 319 318 320 320 337 340 348 349 348 343 343 355 355 355 357 363 363 363 363 362 361 362 362 362 362 361 359 357 355 353 352 353 352 349 347 349 351 351 347
312 310 305 306 305 306 313 314 315 315 316 322 322 327 327 334 339 348 348 342 341 351 353 352 355 356 358 360 363 362 361 362 361 361 362 360 359 357 355 353 352 355 353 352 352 352 352 352 348
316 305 303 305 306 309 313 311 315 318 317 318 321 334 331 333 337 346 344 341 339 344 350 348 349 350 349 351 357 361 361 361 361 360 361 358 352 352 350 350 354 356 354 354 353 353 352 351 351
310 305 305 310 311 310 312 312 313 312 313 315 318 339 335 334 346 343 341 338 337 339 345 345 346 346 343 345 353 353 353 354 354 353 356 354 350 352 350 353 356 356 355 355 355 353 350 350 335
310 305 309 311 313 313 311 311 314 311 310 313 316 329 338 343 346 344 343 341 338 338 343 343 347 348 343 344 352 349 350 351 351 353 355 353 349 352 350 350 349 349 353 347 349 345 339 335 334
306 310 311 312 312 311 310 312 311 312 313 316 318 323 332 337 341 342 343 344 342 338 339 343 345 347 347 346 351 346 347 348 349 350 356 356 353 356 354 348 350 345 346 343 346 340 339 333 334
308 309 310 312 312 312 312 310 310 311 315 317 317 319 320 322 337 343 344 344 345 340 340 341 343 347 348 361 353 346 345 346 348 350 354 352 356 355 354 350 354 349 346 347 345 341 337 335 334
310 309 310 311 311 311 309 309 310 311 314 314 316 316 318 320 330 338 343 345 345 345 341 343 343 350 349 361 357 354 349 350 352 351 351 355 357 359 351 352 355 354 356 350 345 342 340 338 335
309 305 307 309 309 308 310 306 307 312 314 313 314 316 318 320 326 332 342 351 351 353 346 351 351 354 356 360 367 361 359 353 354 356 358 354 357 361 351 353 355 355 358 352 346 343 338 334 335
306 306 300 307 309 309 308 301 309 313 312 312 314 315 317 320 328 334 341 336 347 356 359 354 348 354 358 360 362 362 358 359 359 355 358 355 354 356 357 353 354 354 362 358 348 344 343 335 336
304 299 301 304 310 309 307 303 310 313 312 312 313 315 316 318 327 332 333 331 339 358 362 365 362 353 355 364 360 359 365 363 360 360 355 353 352 351 356 350 351 357 358 359 348 346 344 339 334
299 301 303 303 308 308 306 305 309 312 312 312 314 314 315 322 327 332 335 340 339 342 364 364 366 371 359 358 362 358 357 360 359 359 358 357 351 351 351 353 351 355 351 352 353 348 348 339 337
304 303 302 306 310 307 305 305 308 311 312 312 313 314 316 324 328 330 334 339 344 344 349 363 365 370 369 360 355 355 354 356 357 356 360 361 353 354 351 348 353 355 355 354 354 347 343 342 336
304 302 302 306 308 307 305 304 308 310 311 312 312 313 315 322 326 329 333 340 343 349 352 359 364 370 366 365 362 359 358 357 357 359 360 358 356 354 354 350 348 348 350 353 352 348 343 341 339
303 301 302 302 306 307 305 302 305 308 310 312 314 319 320 321 324 329 334 339 341 345 351 353 357 369 368 366 368 367 366 365 358 355 351 353 353 351 352 351 348 350 352 350 352 348 345 341 339
300 305 304 303 301 296 305 294 304 306 308 311 314 317 319 322 325 331 335 338 340 344 351 356 355 357 365 370 362 359 354 351 353 355 351 352 352 350 350 352 350 351 352 349 349 348 346 346 337
302 306 304 304 301 300 300 297 301 308 306 309 312 315 319 323 327 330 331 334 337 342 345 350 352 355 357 358 365 360 359 357 358 356 356 352 351 351 349 349 350 348 351 353 349 348 346 345 340
308 305 304 304 301 294 299 298 299 303 307 309 313 318 321 323 325 328 330 332 333 335 339 342 344 347 351 352 353 355 358 355 355 353 353 351 352 350 350 348 350 352 350 354 353 348 346 344 345
305 301 293 292 293 292 301 298 301 309 311 312 315 318 321 322 322 321 324 327 329 330 331 333 337 338 342 346 347 349 349 354 354 353 352 349 348 350 349 348 348 348 350 351 354 349 345 345 342
302 301 293 288 290 293 302 295 302 315 317 319 319 320 320 321 319 318 321 323 324 326 330 333 333 333 336 338 341 345 346 345 349 348 351 352 352 352 355 350 348 350 352 353 352 347 345 343 342
301 297 303 296 297 293 297 303 310 315 315 316 316 316 317 320 317 316 317 318 318 324 329 334 335 335 335 337 338 339 342 343 340 345 349 351 356 352 352 350 349 352 353 351 350 345 343 341 341
301 303 295 296 287 286 293 295 297 301 306 307 305 312 314 315 315 316 317 319 320 321 325 326 328 334 335 337 337 336 338 343 344 342 340 346 349 348 346 347 350 348 349 346 345 343 345 342 341
300 297 299 299 296 289 288 293 306 305 306 304 306 307 308 312 313 314 314 315 316 317 317 322 323 325 329 333 337 336 336 338 342 342 343 340 341 343 347 343 342 343 343 343 342 341 341 339 338
304 301 300 293 293 296 295 295 309 309 307 306 306 307 309 309 309 310 311 312 312 313 314 316 320 320 322 325 327 336 335 337 339 338 342 344 337 338 340 340 343 343 343 340 339 338 337 337 336
Wind_Speed
12 14 12 13 8 9 13 6 1 9 1 6 6 12 7 18 10 6 15 15 25 22 18 19 18 16 15 16 18 18 16 11 10 10 11 11 11 10 9 7 6 7 6 5 5 5 4 4 3
12 17 10 9 11 15 7 30 1 12 9 2 1 16 16 11 19 7 14 23 24 21 16 17 18 17 16 15 16 17 16 14 12 11 10 10 9 9 8 6 6 6 5 4 4 3 3 3 2
12 16 9 10 14 16 6 23 8 7 4 3 2 4 21 24 23 8 18 25 22 20 18 17 20 19 17 16 15 15 15 14 13 11 10 9 7 6 6 5 5 5 4 3 3 3 3 2 2
8 9 8 12 18 22 4 4 7 3 5 3 5 2 15 13 6 16 18 25 22 21 19 21 20 19 18 16 16 15 15 13 12 12 10 9 7 5 4 3 3 3 2 2 2 2 3 3 3
9 8 12 15 17 19 15 19 10 5 3 3 6 4 18 10 13 13 16 20 20 21 19 18 22 21 20 19 17 16 15 14 12 11 10 10 8 6 4 3 2 1 1 1 1 1 2 3 5
10 10 13 13 17 18 13 4 8 3 12 2 6 4 15 9 9 10 13 18 21 20 18 17 18 20 19 19 18 17 15 14 13 12 10 9 8 7 5 3 2 2 1 1 2 3 3 4 5
12 12 15 16 18 17 10 2 3 10 9 6 5 5 10 24 11 4 12 16 20 23 19 15 15 15 18 18 18 17 16 14 12 12 11 9 8 7 6 5 4 4 3 3 3 4 5 5 7
11 12 19 17 14 17 13 1 4 7 8 4 1 7 1 16 33 2 13 16 21 21 19 17 14 14 13 13 16 17 16 14 13 12 11 9 9 8 7 6 6 6 4 4 5 6 8 8 8
17 11 14 19 18 16 8 6 1 13 6 1 5 15 20 31 33 11 11 16 17 17 18 17 18 16 14 14 13 13 15 15 13 12 11 9 7 10 11 11 11 8 6 6 7 9 10 9 11
14 12 18 20 17 13 15 4 4 4 9 12 10 22 27 25 13 12 14 16 18 19 19 17 16 15 16 14 14 11 11 9 9 10 10 7 9 6 7 12 13 11 10 9 10 12 12 7 6
16 15 19 21 11 13 14 16 4 8 10 14 10 21 17 14 15 13 14 16 17 17 16 19 16 15 15 12 10 8 7 7 7 10 10 9 8 6 6 6 6 6 10 6 9 8 5 6 2
17 19 18 18 20 4 12 15 15 12 10 15 12 12 19 15 10 13 17 18 18 17 18 22 19 16 13 10 11 10 8 9 8 9 9 6 5 5 3 6 9 8 6 9 7 5 3 3 5
18 17 19 20 11 15 11 14 16 15 9 12 16 6 1 7 14 12 12 10 19 15 14 17 19 16 11 7 11 11 10 10 10 10 10 7 5 4 4 4 2 6 6 6 4 4 4 3 3
19 16 18 16 19 12 16 16 15 16 14 15 9 14 6 16 17 15 10 5 13 15 21 17 19 16 13 4 7 7 8 8 7 8 9 9 5 4 4 3 2 4 1 3 4 4 4 3 4
19 21 19 15 17 16 14 18 18 17 15 15 13 12 12 12 11 17 14 3 7 5 13 12 13 14 10 6 2 4 4 4 4 4 8 10 6 5 6 4 5 5 2 5 5 2 4 2 3
18 17 17 19 20 17 13 18 17 18 16 13 8 11 14 10 11 9 18 19 25 5 7 7 9 15 11 8 4 2 4 4 4 5 4 10 9 6 4 3 3 4 4 4 4 4 3 4 1
17 15 19 20 20 18 19 18 17 19 16 13 9 13 13 10 13 9 11 22 15 5 5 2 5 15 15 8 7 6 5 4 5 4 6 9 11 11 5 5 4 2 1 3 4 4 2 1 1
17 19 18 17 17 11 11 16 16 18 10 7 9 12 12 12 14 10 11 8 5 2 4 7 4 3 13 10 6 7 6 5 5 4 4 9 8 8 6 4 5 5 4 3 4 4 2 2 2
21 24 22 17 12 13 13 14 14 15 10 12 12 11 9 15 14 9 8 7 8 5 4 7 7 6 5 8 8 6 7 6 5 6 3 0 8 7 10 7 5 3 4 4 5 4 3 1 3
22 22 22 16 19 10 8 13 15 16 12 14 12 13 12 15 14 9 7 7 7 5 4 3 5 6 6 4 6 7 6 5 5 5 5 4 4 6 7 7 6 7 4 5 6 5 3 4 3
21 16 16 17 19 18 16 14 18 20 16 12 10 10 11 10 10 9 9 7 6 4 4 4 3 4 6 6 4 3 1 3 4 5 6 6 6 5 5 6 5 4 5 5 5 6 6 4 4
21 15 19 18 18 15 13 14 18 21 16 14 11 9 8 9 6 9 11 9 6 9 11 13 4 3 5 5 5 5 6 7 6 6 8 8 8 7 9 7 7 5 4 4 7 6 5 4 3
19 17 17 20 16 18 22 14 16 16 19 18 12 9 10 11 12 14 13 11 10 11 14 12 15 17 14 4 5 4 5 5 4 6 9 10 10 10 9 8 6 7 5 6 9 8 8 6 4
14 19 17 17 15 15 20 19 17 14 15 20 17 13 10 14 14 13 12 11 12 13 13 11 11 10 13 13 10 2 5 5 6 5 2 8 8 8 9 9 7 5 6 5 5 8 9 7 4
11 9 10 14 15 15 17 18 15 3 5 23 21 15 11 12 15 10 9 13 13 14 13 12 12 13 12 9 10 10 8 8 7 6 4 4 5 9 11 12 9 7 7 6 4 5 6 7 6
14 13 12 18 14 14 8 9 4 17 18 21 18 12 12 12 14 12 7 12 13 12 10 11 12 12 11 10 9 6 6 5 6 6 7 6 4 3 6 12 11 10 9 9 6 5 5 6 7
14 17 14 9 15 15 15 7 11 10 12 10 13 12 10 11 10 13 9 10 10 12 9 8 9 10 10 10 9 9 8 5 5 8 7 6 5 2 5 10 10 10 7 6 4 4 6 6 7
17 16 10 7 5 13 16 11 7 8 17 14 22 6 9 5 9 7 11 8 7 9 10 9 9 7 8 7 7 8 9 8 6 3 6 7 7 2 3 4 5 6 7 6 6 6 6 7 6
13 16 16 13 8 5 12 4 3 14 11 11 14 14 16 6 10 9 7 8 11 11 12 10 9 9 8 7 5 7 7 8 7 6 3 4 5 6 3 4 3 4 7 7 7 8 7 9 9
17 13 4 6 11 7 7 4 6 10 12 15 10 1 9 9 10 9 10 10 10 11 10 9 8 7 9 8 8 5 6 6 6 7 6 3 4 5 6 5 8 8 7 6 6 5 8 9 9
Wind_Direction
267 259 252 267 260 233 332 16 257 95 78 12 3 84 43 47 347 63 131 122 117 131 135 136 131 136 138 139 136 136 135 132 124 123 121 120 117 114 109 103 95 86 77 64 57 53 51 50 50
276 277 267 268 278 272 100 277 205 43 52 276 235 125 151 48 304 245 125 120 123 130 142 137 133 134 139 141 140 139 138 137 136 133 131 126 124 124 123 117 106 94 83 68 48 35 23 4 346
264 265 279 259 258 269 216 218 88 61 69 325 25 158 134 151 237 103 125 120 126 135 145 136 137 137 140 141 140 138 137 137 138 138 134 127 124 124 120 116 106 101 94 74 37 15 6 356 335
254 231 239 266 272 270 148 219 45 310 168 5 46 251 102 131 49 116 142 135 138 144 141 141 138 138 138 137 141 139 139 140 143 142 136 132 131 126 116 103 93 88 82 78 54 22 359 344 327
242 271 250 255 254 262 282 144 142 291 203 76 314 75 104 100 113 131 146 146 142 148 130 145 140 142 146 151 145 144 144 141 143 141 143 144 146 146 147 142 141 139 77 27 1 353 316 318 310
249 234 262 260 246 253 258 110 98 297 302 178 256 48 76 101 129 144 157 152 145 137 136 143 141 144 146 148 149 148 148 147 148 149 150 153 158 161 167 173 189 226 248 293 295 299 302 305 302
252 259 252 267 287 294 231 132 153 220 261 34 27 1 26 347 357 141 159 152 139 126 138 147 150 147 148 151 152 150 150 152 153 151 153 160 167 173 177 183 195 229 269 287 288 292 300 300 294
246 264 272 278 275 273 299 159 126 288 260 69 65 70 104 344 299 229 157 158 144 136 138 153 152 157 157 159 157 155 155 155 156 157 161 169 178 185 192 190 206 220 233 257 274 284 281 275 273
250 261 262 260 259 269 259 165 305 272 282 63 271 124 157 169 253 202 170 161 151 146 142 161 161 162 169 163 164 158 159 160 161 165 173 173 202 190 190 201 175 201 229 248 254 261 264 273 278
235 250 250 270 296 334 325 43 299 249 225 250 238 125 158 202 205 194 175 168 159 154 148 163 167 165 174 164 155 174 176 178 181 184 178 210 221 195 207 148 165 185 213 237 249 252 256 257 257
231 243 272 286 349 329 307 313 215 261 277 275 258 136 155 168 186 182 195 174 166 168 153 164 169 165 183 168 153 169 176 186 189 193 179 202 225 174 152 149 171 190 211 222 218 240 237 250 269
251 243 261 280 293 266 274 283 287 282 279 292 304 132 148 156 204 240 189 181 164 173 167 161 165 168 192 162 161 173 183 186 186 198 194 194 219 239 206 177 183 194 195 209 211 174 141 2 336
250 250 256 258 266 283 264 268 272 269 275 264 283 288 191 232 180 227 266 199 164 159 184 172 161 164 192 164 170 171 198 179 187 182 183 204 206 232 182 259 230 215 151 183 180 111 85 320 225
286 274 257 264 268 249 262 260 264 263 260 264 252 269 237 248 184 189 242 294 119 152 197 177 164 158 173 207 164 163 184 176 179 172 179 190 195 184 221 219 239 286 258 9 78 70 99 259 354
267 273 273 249 258 242 257 258 253 258 252 234 222 237 255 254 246 192 187 181 13 42 166 150 142 142 150 180 184 164 180 203 167 173 162 175 199 203 205 214 194 221 161 101 101 57 121 280 246
273 272 256 256 239 234 235 260 257 228 241 233 209 242 233 234 72 71 74 30 329 338 52 146 159 143 154 163 178 238 210 171 198 177 165 173 178 224 207 248 225 238 138 153 145 155 248 214 258
259 255 252 248 253 201 207 248 257 266 201 211 215 237 232 187 100 70 86 128 220 215 135 171 149 154 163 170 176 205 223 214 188 191 188 182 181 192 201 202 246 227 209 160 156 178 164 356 122
251 243 234 254 261 190 224 238 258 280 165 186 230 252 236 110 85 62 55 76 71 354 157 172 168 163 161 170 167 189 223 223 214 212 202 172 189 192 188 252 216 176 192 256 173 140 55 142 285
269 279 288 294 238 182 216 258 240 251 191 206 210 235 234 109 102 69 51 45 68 18 335 159 161 162 150 158 177 209 202 218 211 220 113 202 179 168 176 207 226 204 191 189 134 123 131 254 229
254 257 272 281 288 284 228 244 264 266 233 214 219 226 211 120 107 91 75 53 56 42 23 38 163 150 181 189 184 196 210 219 215 166 160 188 176 174 175 197 211 187 205 187 145 156 173 206 228
253 273 270 267 271 264 248 261 258 252 241 230 192 39 95 93 93 114 93 65 43 59 69 101 349 177 172 212 207 194 306 228 216 167 175 184 195 205 230 209 230 195 202 186 159 169 179 212 199
268 240 260 263 275 263 205 250 241 235 210 203 146 142 128 116 122 97 81 65 75 54 41 26 92 309 167 177 251 228 207 229 249 199 169 176 192 198 204 209 206 230 203 197 180 174 186 201 215
259 275 264 264 242 268 272 257 270 235 208 168 173 175 134 119 88 81 72 57 47 56 49 32 37 32 17 146 235 248 235 238 246 257 168 178 182 198 218 212 213 219 219 193 179 180 191 180 194
256 262 255 262 273 240 248 261 267 242 211 160 158 138 142 118 100 99 99 82 53 53 71 48 45 46 36 27 7 286 304 320 321 324 286 177 168 188 209 229 216 218 206 210 178 186 180 188 183
239 242 252 247 237 249 245 246 252 29 239 168 140 140 130 132 113 98 88 90 67 58 50 64 47 42 37 35 36 18 357 332 302 308 301 306 219 187 192 195 204 216 225 214 217 180 174 176 189
226 230 237 254 261 262 284 331 350 50 81 109 117 139 141 142 108 105 79 94 99 78 63 50 60 49 40 33 36 24 55 19 347 332 311 306 295 262 188 184 189 200 200 212 193 184 184 186 206
274 258 240 272 291 280 271 138 94 67 68 85 114 135 129 104 108 116 93 76 72 90 70 65 84 75 48 38 26 20 24 63 9 353 330 320 301 286 156 178 188 191 171 180 194 216 218 216 222
284 308 276 144 243 266 273 163 215 329 352 17 8 93 103 123 128 87 97 53 60 73 93 49 23 72 74 52 50 23 6 28 20 352 344 354 335 327 137 172 159 171 175 179 199 220 229 240 239
238 220 240 262 147 254 279 305 33 167 164 60 30 8 341 25 41 47 52 63 34 33 23 36 22 359 36 29 47 48 12 7 7 12 347 337 337 310 220 218 215 210 206 198 200 220 253 224 238
300 315 172 294 265 13 311 312 347 102 125 127 157 275 353 351 23 25 24 46 34 25 22 27 1 5 13 4 0 37 24 358 5 355 359 9 342 345 295 287 233 221 200 200 209 219 248 240 236